Theta_e
316 323 323 324 326 329 331 334 332 335 334 328 325 323 323 324 331 336 338 344 345 355 356 357 356 355 353 352 353 350 344 346 347 344 339 343 347 347 348 351 347 348 344
315 320 322 324 325 329 330 333 333 335 332 329 329 333 328 326 328 338 340 348 348 349 354 352 352 354 352 353 352 349 345 347 346 340 335 332 338 341 336 344 343 339 338
313 318 321 323 324 326 328 328 329 333 335 334 329 329 327 327 324 322 326 335 340 347 345 352 349 349 353 351 351 350 346 340 348 343 338 330 328 332 326 320 330 328 321
314 316 321 322 323 323 325 329 330 331 333 336 328 328 324 321 324 324 323 328 334 339 344 349 352 353 353 348 349 351 347 343 339 341 343 341 337 327 318 317 314 316 315
313 315 316 319 320 323 322 328 331 333 335 336 335 325 323 322 324 324 326 326 328 332 339 336 328 323 349 349 348 350 349 347 342 340 340 338 338 337 325 314 311 312 314
312 315 319 320 320 319 321 320 323 329 334 333 333 330 326 324 322 323 323 325 326 330 340 331 322 325 330 343 346 350 347 346 346 344 341 339 335 332 330 317 313 308 310
311 314 314 315 321 319 321 321 319 329 331 330 329 327 327 325 322 322 322 321 322 324 331 331 321 317 328 344 346 348 348 347 345 345 340 342 341 341 332 319 312 309 310
313 311 311 314 312 317 321 321 324 326 328 326 328 328 326 321 321 321 324 323 322 324 327 330 338 333 335 341 346 347 345 348 347 345 346 345 343 344 330 320 317 311 308
312 311 311 312 310 311 318 321 323 325 325 324 325 325 323 324 323 323 323 323 324 325 327 330 331 341 340 338 341 346 344 347 346 346 346 347 345 342 335 326 322 316 309
310 312 311 311 311 311 315 318 321 321 322 321 322 320 321 321 321 321 321 322 323 325 325 326 329 338 339 327 324 339 343 343 346 348 346 345 346 338 332 328 326 325 320
309 309 311 313 314 311 314 317 317 317 317 318 319 320 320 320 319 318 319 320 322 323 323 325 328 334 338 332 331 338 343 339 341 344 343 344 345 339 333 329 330 329 323
310 311 311 312 312 311 314 314 316 314 314 316 316 317 318 317 316 317 318 321 321 322 322 324 327 331 337 339 337 337 340 337 338 342 342 340 339 338 335 331 328 328 320
307 307 308 310 311 312 311 312 313 312 314 314 312 313 313 313 312 313 315 317 317 320 322 324 326 327 336 337 341 340 341 337 339 341 341 339 335 334 332 330 323 320 315
306 307 308 308 310 311 311 311 311 312 311 311 310 310 310 310 310 310 312 313 316 318 320 322 326 329 335 337 338 339 339 338 338 339 339 339 334 333 330 324 319 313 312
305 306 307 307 308 309 309 309 309 310 309 308 308 307 308 308 308 308 310 312 316 318 321 323 325 329 335 338 331 330 328 332 334 336 337 336 333 329 326 322 315 314 310
303 305 305 306 306 306 306 306 306 307 307 305 305 305 304 304 306 307 308 311 315 316 320 323 324 330 334 314 315 319 321 318 329 332 332 331 323 318 316 316 315 313 311
302 304 304 304 304 305 305 304 304 304 304 304 303 303 302 303 304 306 308 311 312 315 322 325 328 330 333 307 311 314 320 323 325 321 321 317 317 316 314 312 312 313 310
302 302 303 302 303 304 303 303 304 303 303 303 303 303 302 302 304 306 308 312 313 319 322 325 327 328 318 308 308 311 324 325 324 320 318 314 312 312 312 311 310 311 312
302 302 303 303 302 302 303 303 302 302 302 301 301 301 301 301 304 304 308 311 316 317 316 319 322 321 312 304 305 315 318 316 314 315 314 312 309 305 306 308 307 307 305
301 300 301 302 301 301 302 301 299 299 298 299 300 301 301 303 302 305 308 312 316 313 314 313 314 310 308 302 304 312 313 309 307 307 307 306 307 302 304 307 306 303 304
300 301 300 299 299 300 300 298 297 296 298 300 300 301 302 301 303 305 312 314 309 308 306 307 307 306 307 304 300 304 311 308 305 305 305 305 299 298 300 304 307 305 307
298 300 298 297 298 299 298 296 296 298 299 299 300 299 300 303 306 309 312 309 306 305 304 304 302 302 303 300 298 299 302 304 305 304 305 303 299 298 298 302 297 299 305
297 297 296 295 296 297 297 295 296 298 298 298 298 299 302 305 310 310 311 305 305 303 303 302 300 299 300 299 297 297 298 300 303 305 301 297 297 297 298 297 299 302 309
294 295 294 293 293 295 296 296 297 298 299 298 299 302 304 306 312 311 310 306 303 302 303 301 298 298 299 299 301 301 302 301 302 303 304 302 302 301 303 302 304 310 309
293 294 293 293 293 295 296 297 298 299 298 300 302 304 307 306 300 299 302 304 304 303 303 302 300 298 297 298 298 300 302 304 302 304 304 303 304 303 304 306 310 310 309
293 293 293 294 295 296 297 299 301 300 299 300 302 305 307 302 300 299 297 293 295 295 295 296 299 298 295 294 294 294 295 295 297 302 301 302 303 304 306 308 308 308 307
Wind_Speed
8 12 8 7 7 7 2 4 5 6 6 5 7 7 7 9 10 9 11 10 10 1 11 11 11 11 7 10 7 4 5 10 5 2 4 2 6 7 5 5 5 7 8
7 11 10 7 5 7 6 1 4 6 7 5 6 4 6 8 9 8 10 13 8 8 7 15 10 7 7 10 10 8 4 4 4 3 2 4 1 6 7 5 6 9 7
5 10 12 10 9 7 8 7 5 1 4 6 6 6 7 6 7 10 10 10 16 12 13 9 9 14 11 7 10 8 8 6 2 4 3 2 2 4 6 10 6 9 8
12 6 12 11 11 9 7 7 7 5 1 4 6 8 8 9 7 8 10 12 13 14 13 14 9 13 8 9 8 8 8 6 7 3 4 3 5 2 1 6 8 8 8
3 11 14 11 8 10 10 6 5 3 2 2 3 5 8 8 9 9 12 14 14 12 14 6 2 11 10 10 10 8 10 7 7 7 3 6 6 7 3 3 3 5 4
10 11 7 1 4 7 4 10 9 4 3 2 3 6 7 9 9 10 11 11 10 11 11 4 6 5 14 16 12 12 11 10 8 7 6 7 4 6 5 4 2 3 1
9 10 8 9 4 1 7 8 10 2 2 3 3 6 7 9 11 12 9 12 11 10 13 3 3 4 16 22 15 12 11 11 9 9 7 7 8 3 4 5 3 3 2
19 16 19 19 19 25 4 3 4 4 4 5 4 5 8 8 8 10 9 10 11 13 16 17 7 16 14 22 17 10 9 9 9 11 10 7 5 5 6 8 8 3 1
16 17 17 15 16 24 22 8 6 5 4 5 4 5 7 9 8 10 11 11 12 12 15 16 16 11 13 14 14 10 11 11 11 11 11 9 5 5 7 9 11 10 6
17 15 11 7 3 14 17 11 7 5 4 6 6 6 8 9 9 10 13 13 13 14 16 18 17 15 5 7 14 18 14 13 9 9 11 9 5 9 8 9 9 6 5
9 7 8 8 6 8 22 10 10 10 8 8 8 8 8 8 10 12 13 14 15 14 16 17 17 16 11 12 11 21 17 15 13 9 9 9 7 8 10 9 8 5 3
11 11 14 13 13 17 7 4 6 10 11 9 9 8 9 10 11 13 15 14 14 14 16 16 16 16 14 12 14 17 15 14 15 13 9 7 7 12 12 9 11 5 5
7 12 13 14 15 14 11 7 8 11 10 11 12 12 11 12 14 15 15 14 16 17 18 17 15 16 17 14 13 15 15 15 15 13 10 7 9 11 10 9 7 7 7
19 19 15 15 15 15 11 13 12 11 11 11 13 13 12 13 15 16 16 17 17 17 19 16 17 17 18 16 15 14 14 16 12 7 8 7 10 11 13 11 11 11 9
21 20 19 14 15 15 13 13 13 13 12 13 13 13 14 14 16 17 16 18 17 17 18 17 16 18 18 12 3 4 8 13 10 6 9 8 11 14 15 12 12 12 11
23 23 20 19 18 17 18 16 14 13 13 13 15 14 18 18 15 16 17 18 17 18 19 14 17 18 11 7 15 11 7 17 19 9 8 5 12 13 15 18 17 15 14
23 23 22 20 18 16 15 15 15 15 14 14 15 15 16 16 16 16 17 19 15 18 13 14 15 12 4 7 14 20 12 8 9 6 10 8 7 15 15 17 16 9 9
22 22 19 18 16 16 16 15 14 14 13 14 15 13 13 15 16 15 17 15 13 15 10 9 10 8 6 5 10 14 18 17 11 14 13 14 12 13 17 16 12 7 6
19 18 19 19 19 18 16 15 14 12 12 14 14 13 13 15 13 15 16 11 15 3 4 6 7 6 6 10 7 15 11 11 10 9 10 15 15 17 21 17 19 15 12
18 19 22 20 17 17 15 14 14 14 14 14 12 12 13 11 13 15 14 12 1 3 3 5 6 7 6 9 15 13 9 12 9 10 11 12 23 21 21 21 16 17 15
23 22 18 17 16 16 15 15 14 14 12 13 13 13 9 12 14 15 11 6 5 4 3 5 7 7 6 6 9 15 10 11 10 10 10 10 19 11 18 18 15 17 16
23 19 19 17 16 16 14 14 14 11 11 12 12 11 11 11 11 10 9 6 5 3 3 5 6 6 7 10 12 16 16 15 12 10 10 12 22 17 10 9 15 18 20
20 19 17 17 16 14 13 15 13 10 11 10 10 12 12 12 10 6 5 6 5 3 3 4 5 5 6 8 15 17 19 18 13 11 16 18 19 22 6 14 18 13 12
18 16 17 17 18 14 13 13 12 10 10 10 11 11 8 8 5 5 4 5 4 4 3 5 6 6 6 6 7 9 12 20 16 24 17 17 20 19 14 12 5 9 9
16 16 16 15 18 15 15 13 10 9 9 10 9 8 5 5 7 6 4 4 3 3 4 4 5 7 7 4 8 10 11 13 16 20 13 13 14 11 8 4 6 8 12
18 17 18 15 16 15 14 13 10 9 9 10 8 5 3 5 6 6 6 17 10 12 12 12 8 6 11 11 12 20 22 19 17 14 16 14 12 10 8 7 10 11 12
Wind_Direction
112 116 117 114 130 115 66 29 10 21 345 6 347 352 348 322 313 301 284 268 262 321 218 218 202 180 196 228 223 181 205 256 222 172 244 213 79 64 54 80 99 118 111
155 136 146 157 169 156 150 126 19 6 339 3 322 326 331 306 305 295 301 298 250 256 212 202 230 193 194 233 221 215 209 245 213 224 201 171 88 93 34 10 77 84 107
254 189 159 175 190 182 164 162 153 31 321 6 334 334 326 316 336 334 322 337 336 294 269 211 181 219 215 221 223 217 209 217 203 136 161 174 265 88 29 21 45 76 79
208 211 175 189 185 191 176 174 165 161 147 14 337 339 312 320 332 315 319 320 315 313 306 298 214 195 205 219 233 218 212 205 228 234 175 187 138 140 86 45 7 63 69
238 201 220 223 196 183 196 156 123 67 70 69 316 316 315 318 310 316 310 314 303 296 293 190 157 15 272 221 223 213 203 199 217 221 213 213 195 173 166 143 131 41 53
243 238 211 314 210 141 44 22 32 324 17 17 320 309 302 309 310 306 298 290 291 298 311 168 137 148 276 261 219 212 206 202 205 207 218 216 201 192 141 124 136 120 108
306 357 328 287 271 357 162 122 224 249 288 316 341 303 304 303 296 290 297 300 297 298 305 121 184 217 259 244 229 202 194 198 201 205 212 203 220 182 90 113 140 161 154
19 29 22 16 22 338 330 40 309 289 322 316 315 313 296 285 285 287 304 309 303 300 299 299 217 187 243 258 222 219 199 187 202 211 212 224 217 172 144 146 150 126 125
2 6 23 27 34 341 309 342 322 332 333 335 312 299 298 288 301 302 291 286 288 291 290 299 304 308 217 249 282 229 204 191 201 207 213 212 207 134 152 153 166 152 171
347 350 343 325 227 256 303 334 330 314 307 294 295 307 300 295 293 300 295 288 286 285 287 289 297 303 185 207 221 259 221 203 195 206 206 210 198 145 156 158 171 186 141
342 334 315 292 265 270 279 310 305 308 323 316 308 297 292 301 305 299 290 288 285 284 285 286 289 291 268 210 226 245 229 214 213 202 202 197 163 154 159 161 177 180 153
302 318 288 274 264 249 311 284 318 323 312 293 306 314 318 318 311 303 295 295 291 288 285 283 285 288 274 256 232 237 234 218 219 203 191 192 161 150 164 167 179 171 110
266 302 320 326 316 329 309 307 306 313 330 336 323 314 320 318 310 305 299 300 298 293 285 282 283 282 279 257 232 228 224 215 214 202 185 167 155 162 162 165 121 107 99
329 328 329 321 327 321 342 343 339 335 328 323 314 306 307 310 303 299 295 292 282 286 278 276 277 276 272 252 244 228 230 220 207 182 150 168 162 179 158 133 132 125 119
318 315 314 323 317 325 340 332 331 327 322 314 307 303 301 295 293 292 291 288 282 281 272 271 276 277 269 265 38 315 334 282 204 163 134 154 163 167 159 141 137 138 135
314 307 315 327 320 317 317 320 311 307 310 301 291 293 291 289 289 284 283 282 279 283 272 275 276 277 278 154 155 131 19 300 265 151 102 119 126 118 112 113 131 142 149
317 321 320 312 308 306 307 307 304 296 285 281 280 284 286 287 283 283 279 276 282 285 279 283 275 275 267 173 148 139 157 246 246 93 113 100 116 118 114 101 110 128 127
312 311 310 307 310 305 302 297 289 285 282 278 279 278 279 282 280 282 278 280 289 279 287 306 323 279 75 341 145 158 179 199 165 161 140 129 126 125 121 120 110 100 109
305 305 303 305 305 299 299 294 289 283 281 285 280 279 280 277 280 281 281 288 285 337 335 357 354 26 47 51 85 94 97 94 83 87 123 124 123 131 121 120 115 107 89
308 310 305 301 300 298 298 293 289 290 292 282 282 282 273 275 278 279 286 291 171 57 346 32 37 53 65 113 106 103 109 104 104 100 102 126 135 132 129 120 114 114 121
309 300 298 300 298 300 295 288 288 279 283 279 274 273 275 272 271 276 275 270 79 78 47 64 61 58 77 50 93 113 115 116 112 118 118 114 79 78 115 123 133 136 131
303 308 310 303 301 296 289 282 279 282 282 277 275 276 271 268 268 269 271 105 100 103 94 82 72 54 60 57 65 83 98 114 120 116 119 119 117 101 89 128 142 128 117
314 304 298 297 293 288 283 281 280 278 272 268 268 265 265 267 262 263 129 109 113 120 112 108 93 77 72 71 77 90 103 103 102 115 109 99 102 95 93 147 138 130 126
304 302 299 295 292 288 280 269 272 267 263 253 258 258 265 278 277 94 110 122 129 137 127 114 110 101 95 96 99 102 102 99 101 111 111 126 115 115 162 149 151 132 127
303 301 294 290 287 289 283 275 258 243 251 255 255 264 274 69 79 59 40 92 97 120 139 119 121 124 120 119 117 120 121 126 130 123 129 124 124 151 152 190 145 122 112
306 304 297 289 284 284 279 276 259 219 224 242 240 242 102 109 97 98 77 40 76 83 85 91 106 84 106 112 115 107 106 114 134 133 126 124 141 149 162 136 124 120 128